This demonstration page uses our WeatherBlox Daily Observations layout. Learn more.

36.17497, -115.13722

Hourly Observations for July 30, 2018

Temp ( °F °C ) Dew Point ( °F °C ) Humidity (%) Winds ( mph kmh ) Pressure ( in mb ) Visibility ( mi km ) Precip ( " mm )
12:53 am 00:53 Clear 90 32.2 60 15.6 37 37 Calm 29.85 1011 10 16.09344 0 0
1:53 am 01:53 Clear 89 31.7 60 15.6 38 38 W 3 6 29.85 1011 10 16.09344 0 0
2:53 am 02:53 Clear 87 30.6 60 15.6 40 40 NW 3 6 29.85 1011 10 16.09344 0 0
3:53 am 03:53 Clear 87 30.6 60 15.6 40 40 WNW 3 6 29.88 1012 10 16.09344 0 0
4:53 am 04:53 Clear 86 30 60 15.6 42 42 NNE 6 9 29.88 1012 10 16.09344 0 0
5:53 am 05:53 Sunny 85 29.4 60 15.6 43 43 NW 3 6 29.88 1012 10 16.09344 0 0
6:53 am 06:53 Sunny 86 30 60 15.6 42 42 N 7 11 29.91 1013 10 16.09344 0 0
7:53 am 07:53 Sunny 90 32.2 58 14.4 34 34 N 7 11 29.91 1013 10 16.09344 0 0
8:53 am 08:53 Sunny 93 33.9 59 15 32 32 E 6 9 29.91 1013 10 16.09344 0 0
9:53 am 09:53 Sunny 96 35.6 59 15 29 29 Calm 29.91 1013 10 16.09344 0 0
10:53 am 10:53 Sunny 98 36.7 59 15 27 27 Calm 29.91 1013 10 16.09344 0 0
11:53 am 11:53 Sunny 101 38.3 58 14.4 24 24 SE 9 15 29.88 1012 10 16.09344 0 0
12:53 pm 12:53 Sunny 104 40 57 13.9 21 21 E 6 9 29.88 1012 10 16.09344 0 0
1:53 pm 13:53 Sunny 106 41.1 55 12.8 19 19 Calm 29.85 1011 10 16.09344 0 0
2:53 pm 14:53 Sunny 106 41.1 54 12.2 18 18 N 6 9 29.83 1010 10 16.09344 0 0
3:53 pm 15:53 Sunny 104 40 51 10.6 17 17 NNW 13 20 29.8 1009 10 16.09344 0 0
4:53 pm 16:53 Sunny 105 40.6 51 10.6 16 16 N 9 15 29.8 1009 10 16.09344 0 0
5:53 pm 17:53 Sunny 106 41.1 49 9.4 15 15 NNE 9 15 29.77 1008 10 16.09344 0 0
6:53 pm 18:53 Sunny 105 40.6 52 11.1 17 17 S 7 11 29.77 1008 10 16.09344 0 0
7:53 pm 19:53 Clear 104 40 53 11.7 18 18 SSW 3 6 29.8 1009 10 16.09344 0 0
8:53 pm 20:53 Clear 102 38.9 54 12.2 20 20 SW 3 6 29.8 1009 10 16.09344 0 0
9:53 pm 21:53 Clear 100 37.8 51 10.6 19 19 E 10 17 29.85 1011 10 16.09344 0 0
10:53 pm 22:53 Clear 98 36.7 48 8.9 18 18 ESE 17 28 29.88 1012 10 16.09344 0 0
11:53 pm 23:53 Clear 93 33.9 57 13.9 30 30 SW 3 6 29.91 1013 10 16.09344 0 0

Powered by AerisWeather